FW4174 Weather Reports


Display with metric or nautical units.
time (UTC)temp
F
wind
direction
speed
MPH
gust
MPH
rain 1hr
in
rain 24hr
in
rain mn
in
humidity
%
barometer
mb
20260509092044 51 0 0.0 4.0 0.00 0.00 0.00 52 1003.4
20260509091553 51 0 1.0 4.0 0.00 0.00 0.00 51 1003.4
20260509091048 51 107 2.0 7.0 0.00 0.00 0.00 52 1003.4
20260509090546 51 0 3.0 11.0 0.00 0.00 0.00 52 1003.5
20260509090057 50 200 4.0 11.0 0.00 0.00 0.00 53 1003.7
20260509085546 50 309 6.0 11.0 0.00 0.00 0.00 54 1003.7
20260509085048 50 239 6.0 10.0 0.00 0.00 0.00 52 1002.2
20260509084554 50 238 4.0 8.0 0.00 0.00 0.00 52 1002.2
20260509084045 50 241 4.0 8.0 0.00 0.00 0.00 51 1002.1
20260509083544 50 243 4.0 8.0 0.00 0.00 0.00 51 1002.0
20260509083057 51 238 4.0 8.0 0.00 0.00 0.00 51 1002.0
20260509082544 51 166 3.0 8.0 0.00 0.00 0.00 50 1001.9
20260509082044 51 268 4.0 7.0 0.00 0.00 0.00 50 1001.8
20260509081552 51 257 4.0 8.0 0.00 0.00 0.00 50 1001.8
20260509081045 51 253 4.0 8.0 0.00 0.00 0.00 50 1001.9
20260509080544 51 207 4.0 8.0 0.00 0.00 0.00 50 1001.9
20260509080054 51 261 5.0 8.0 0.00 0.00 0.00 50 1001.8
20260509075545 50 250 5.0 8.0 0.00 0.00 0.00 51 1001.9
20260509075045 50 236 4.0 8.0 0.00 0.00 0.00 51 1001.8
20260509074605 50 219 5.0 9.0 0.00 0.00 0.00 52 1001.9
20260509074045 49 273 5.0 9.0 0.00 0.00 0.00 52 1002.0
20260509073545 49 250 4.0 9.0 0.00 0.00 0.00 52 1002.0
20260509073051 49 237 3.0 7.0 0.00 0.00 0.00 53 1002.0
20260509072545 48 274 2.0 4.0 0.00 0.00 0.00 53 1002.1
20260509072047 49 259 2.0 4.0 0.00 0.00 0.00 52 1002.1
20260509071604 49 257 2.0 7.0 0.00 0.00 0.00 51 1002.2
20260509071045 50 258 3.0 7.0 0.00 0.00 0.00 51 1002.3
20260509070547 50 231 4.0 8.0 0.00 0.00 0.00 51 1002.4
20260509070054 49 254 4.0 8.0 0.00 0.00 0.00 52 1002.6
20260509065544 49 250 5.0 8.0 0.00 0.00 0.00 52 1002.7
20260509065045 48 227 3.0 6.0 0.00 0.00 0.00 53 1002.9
20260509064549 48 281 3.0 5.0 0.00 0.00 0.00 52 1002.8
20260509064045 49 256 2.0 4.0 0.00 0.00 0.00 52 1002.8
20260509063544 49 258 2.0 4.0 0.00 0.00 0.00 51 1002.8
20260509063050 49 234 2.0 4.0 0.00 0.00 0.00 51 1002.9
20260509062545 49 248 2.0 6.0 0.00 0.00 0.00 50 1003.1
20260509062045 50 221 2.0 7.0 0.00 0.00 0.00 49 1003.1
20260509061557 50 258 4.0 8.0 0.00 0.00 0.00 48 1003.1
20260509061045 50 248 5.0 8.0 0.00 0.00 0.00 48 1003.2
20260509060548 50 249 5.0 8.0 0.00 0.00 0.00 48 1003.3
20260509060059 50 244 5.0 7.0 0.00 0.00 0.00 48 1003.4
20260509055547 50 253 4.0 7.0 0.00 0.00 0.00 49 1003.4
20260509055045 50 248 4.0 7.0 0.00 0.00 0.00 50 1003.4
20260509054607 50 241 4.0 7.0 0.00 0.00 0.00 50 1003.5
20260509054047 49 232 5.0 7.0 0.00 0.00 0.00 50 1003.6
20260509053547 49 236 2.0 7.0 0.00 0.00 0.00 50 1003.6
20260509053052 50 232 4.0 7.0 0.00 0.00 0.00 50 1003.8
20260509052544 50 248 4.0 7.0 0.00 0.00 0.00 49 1003.9
20260509052047 50 230 4.0 7.0 0.00 0.00 0.00 48 1003.9
20260509051552 51 244 4.0 7.0 0.00 0.00 0.00 48 1003.9
20260509051046 51 236 4.0 7.0 0.00 0.00 0.00 48 1003.9
20260509050547 50 240 4.0 7.0 0.00 0.00 0.00 48 1004.0
20260509050054 50 227 3.0 5.0 0.00 0.00 0.00 49 1004.0
20260509045545 50 227 1.0 4.0 0.00 0.00 0.00 49 1004.0
20260509045045 50 199 1.0 4.0 0.00 0.00 0.00 48 1004.1
20260509044552 50 233 3.0 4.0 0.00 0.00 0.00 48 1004.2
20260509044044 50 244 2.0 4.0 0.00 0.00 0.00 48 1004.2
20260509043549 51 230 2.0 4.0 0.00 0.00 0.00 46 1004.2
20260509043100 52 206 2.0 4.0 0.00 0.00 0.00 45 1004.3
20260509042547 53 219 2.0 4.0 0.00 0.00 0.00 43 1004.3
20260509042047 53 315 0.0 1.0 0.00 0.00 0.00 44 1004.3
20260509041554 53 0 0.0 1.0 0.00 0.00 0.00 42 1004.3
20260509041045 55 0 0.0 0.0 0.00 0.00 0.00 40 1004.3
20260509040545 55 0 0.0 0.0 0.00 0.00 0.00 43 1004.4
20260509040055 55 0 0.0 0.0 0.00 0.00 0.00 42 1004.5
20260509035547 55 0 0.0 0.0 0.00 0.00 0.00 42 1004.5
20260509035046 55 0 0.0 2.0 0.00 0.00 0.00 42 1004.4
20260509034553 55 0 0.0 2.0 0.00 0.00 0.00 42 1004.5
20260509034044 56 315 0.0 2.0 0.00 0.00 0.00 41 1004.5
20260509033547 56 315 0.0 2.0 0.00 0.00 0.00 40 1004.5
20260509033053 56 0 0.0 1.0 0.00 0.00 0.00 41 1004.4
20260509032544 57 0 0.0 1.0 0.00 0.00 0.00 40 1004.4
20260509032047 57 0 0.0 2.0 0.00 0.00 0.00 40 1004.2
20260509031619 57 0 0.0 3.0 0.00 0.00 0.00 39 1004.2
20260509031048 58 315 1.0 3.0 0.00 0.00 0.00 38 1004.2
20260509030549 58 315 1.0 3.0 0.00 0.00 0.00 38 1004.3
20260509030057 58 294 1.0 3.0 0.00 0.00 0.00 37 1004.2
20260509025545 59 304 1.0 3.0 0.00 0.00 0.00 37 1004.3
20260509025047 59 298 1.0 3.0 0.00 0.00 0.00 37 1004.2
20260509024552 59 298 1.0 3.0 0.00 0.00 0.00 37 1004.2
20260509024046 59 296 1.0 3.0 0.00 0.00 0.00 36 1004.2
20260509023548 60 319 1.0 4.0 0.00 0.00 0.00 35 1004.0
20260509023056 60 294 1.0 4.0 0.00 0.00 0.00 34 1004.0
20260509022547 61 299 1.0 4.0 0.00 0.00 0.00 34 1003.8
20260509022047 61 309 1.0 6.0 0.00 0.00 0.00 34 1003.8
20260509021554 61 304 2.0 6.0 0.00 0.00 0.00 33 1003.7
20260509021049 61 297 1.0 3.0 0.00 0.00 0.00 33 1003.6
20260509020547 62 295 0.0 4.0 0.00 0.00 0.00 32 1003.6
20260509020050 63 302 2.0 5.0 0.00 0.00 0.00 31 1003.5
20260509015547 62 294 2.0 5.0 0.00 0.00 0.00 31 1003.5
20260509015048 62 333 2.0 4.0 0.00 0.00 0.00 31 1003.3
20260509014550 63 300 1.0 3.0 0.00 0.00 0.00 30 1003.2
20260509014048 63 311 2.0 4.0 0.00 0.00 0.00 30 1003.1
20260509013548 64 325 2.0 4.0 0.00 0.00 0.00 30 1003.2
20260509013049 64 308 2.0 5.0 0.00 0.00 0.00 29 1003.1
20260509012547 65 321 2.0 6.0 0.00 0.00 0.00 28 1003.1
20260509012048 66 304 3.0 8.0 0.00 0.00 0.00 27 1003.1
20260509011550 66 289 3.0 11.0 0.00 0.00 0.00 27 1002.9
20260509011048 66 278 3.0 11.0 0.00 0.00 0.00 26 1002.9
20260509010547 67 278 4.0 11.0 0.00 0.00 0.00 26 1002.8
20260509010053 67 218 4.0 11.0 0.00 0.00 0.00 26 1002.8
20260509005547 67 299 4.0 8.0 0.00 0.00 0.00 26 1002.8
20260509005046 67 288 3.0 8.0 0.00 0.00 0.00 26 1002.7
20260509004553 68 304 3.0 8.0 0.00 0.00 0.00 26 1002.7
20260509004048 68 269 3.0 12.0 0.00 0.00 0.00 25 1002.6
20260509003547 69 278 4.0 12.0 0.00 0.00 0.00 25 1002.6
20260509003053 69 309 4.0 12.0 0.00 0.00 0.00 26 1002.6
20260509002547 70 325 4.0 10.0 0.00 0.00 0.00 25 1002.5
20260509002046 70 286 4.0 9.0 0.00 0.00 0.00 25 1002.5
20260509001551 70 283 4.0 9.0 0.00 0.00 0.00 26 1002.4
20260509001046 70 270 4.0 10.0 0.00 0.00 0.00 25 1002.4
20260509000547 71 270 5.0 13.0 0.00 0.00 0.00 25 1002.3
20260509000110 71 283 5.0 13.0 0.00 0.00 0.00 26 1002.3
20260508235545 72 232 2.0 9.0 0.00 0.00 0.00 26 1002.2
20260508235046 72 278 4.0 9.0 0.00 0.00 0.00 26 1002.2
20260508234603 72 267 2.0 10.0 0.00 0.00 0.00 27 1002.3
20260508234045 72 300 3.0 10.0 0.00 0.00 0.00 27 1002.3
20260508233547 73 277 3.0 9.0 0.00 0.00 0.00 27 1002.2
20260508233058 73 352 4.0 10.0 0.00 0.00 0.00 26 1002.3
20260508232546 73 288 3.0 10.0 0.00 0.00 0.00 25 1002.4
20260508232046 74 288 3.0 10.0 0.00 0.00 0.00 25 1002.4
20260508231551 74 288 4.0 10.0 0.00 0.00 0.00 25 1002.3
20260508231046 74 273 5.0 9.0 0.00 0.00 0.00 25 1002.3
20260508230545 74 337 2.0 8.0 0.00 0.00 0.00 25 1002.2
20260508230056 74 306 3.0 9.0 0.00 0.00 0.00 26 1002.3
20260508225546 75 309 3.0 9.0 0.00 0.00 0.00 26 1002.3
20260508225049 75 323 4.0 9.0 0.00 0.00 0.00 25 1002.3
20260508224557 75 296 4.0 9.0 0.00 0.00 0.00 26 1002.2
20260508224045 75 360 4.0 11.0 0.00 0.00 0.00 25 1002.2
20260508223547 74 342 3.0 11.0 0.00 0.00 0.00 26 1002.1
20260508223054 75 317 3.0 9.0 0.00 0.00 0.00 26 1002.1
20260508222546 75 293 2.0 7.0 0.00 0.00 0.00 25 1002.1
20260508222045 74 266 3.0 7.0 0.00 0.00 0.00 26 1002.1
20260508221558 75 306 3.0 9.0 0.00 0.00 0.00 25 1002.1
20260508221045 75 265 4.0 9.0 0.00 0.00 0.00 24 1002.0
20260508220544 76 311 3.0 8.0 0.00 0.00 0.00 25 1002.0
20260508220056 75 232 2.0 5.0 0.00 0.00 0.00 25 1001.9
20260508215544 74 254 2.0 7.0 0.00 0.00 0.00 26 1002.1
20260508215044 74 269 2.0 7.0 0.00 0.00 0.00 24 1002.1
20260508214609 74 303 3.0 9.0 0.00 0.00 0.00 24 1002.1
20260508214045 74 288 3.0 9.0 0.00 0.00 0.00 24 1002.0
20260508213546 76 264 2.0 8.0 0.00 0.00 0.00 23 1002.0
20260508213101 77 315 3.0 8.0 0.00 0.00 0.00 24 1002.1
20260508212544 75 0 3.0 8.0 0.00 0.00 0.00 23 1002.1
20260508212043 76 319 2.0 13.0 0.00 0.00 0.00 23 1002.1
20260508211558 77 22 3.0 17.0 0.00 0.00 0.00 23 1002.1
20260508211043 77 270 8.0 17.0 0.00 0.00 0.00 21 1002.1
20260508210544 77 241 4.0 21.0 0.00 0.00 0.00 21 1002.2
20260508210058 77 253 3.0 21.0 0.00 0.00 0.00 24 1002.2
20260508205547 76 301 1.0 7.0 0.00 0.00 0.00 23 1002.2
20260508205047 75 283 2.0 15.0 0.00 0.00 0.00 26 1002.4
20260508204607 76 255 4.0 15.0 0.00 0.00 0.00 22 1002.5
20260508204049 76 235 4.0 11.0 0.00 0.00 0.00 22 1002.6
20260508203548 77 232 2.0 11.0 0.00 0.00 0.00 22 1002.6
20260508203059 76 269 5.0 11.0 0.00 0.00 0.00 22 1002.8
20260508202547 76 227 4.0 11.0 0.00 0.00 0.00 23 1003.0
20260508202046 75 324 1.0 13.0 0.00 0.00 0.00 25 1003.0
20260508201609 74 352 3.0 13.0 0.00 0.00 0.00 23 1003.1
20260508201049 74 273 1.0 7.0 0.00 0.00 0.00 24 1003.1
20260508200546 72 288 1.0 7.0 0.00 0.00 0.00 26 1003.2
20260508200106 72 138 1.0 7.0 0.00 0.00 0.00 25 1003.3
20260508195548 73 259 2.0 7.0 0.00 0.00 0.00 23 1003.4
20260508195047 73 309 1.0 6.0 0.00 0.00 0.00 23 1003.4
20260508194554 74 297 1.0 6.0 0.00 0.00 0.00 24 1003.4
20260508194046 73 275 2.0 8.0 0.00 0.00 0.00 23 1003.5
20260508193547 74 241 1.0 12.0 0.00 0.00 0.00 24 1003.5
20260508193056 75 284 3.0 12.0 0.00 0.00 0.00 22 1003.7
20260508192548 78 281 4.0 9.0 0.00 0.00 0.00 21 1003.5
20260508192048 76 269 2.0 7.0 0.00 0.00 0.00 23 1003.7
20260508191556 75 317 2.0 8.0 0.00 0.00 0.00 23 1003.8
20260508191047 76 286 2.0 12.0 0.00 0.00 0.00 21 1003.9
20260508190549 74 277 3.0 12.0 0.00 0.00 0.00 23 1003.9
20260508185546 73 299 3.0 9.0 0.00 0.00 0.00 22 1004.0
20260508185047 73 279 2.0 7.0 0.00 0.00 0.00 24 1004.2
20260508184552 73 262 1.0 8.0 0.00 0.00 0.00 24 1004.2
20260508184050 74 318 2.0 8.0 0.00 0.00 0.00 23 1004.1
20260508183548 74 298 2.0 7.0 0.00 0.00 0.00 22 1004.2
20260508183054 74 265 2.0 8.0 0.00 0.00 0.00 21 1004.3
20260508182546 74 288 2.0 8.0 0.00 0.00 0.00 26 1004.4
20260508182047 74 254 2.0 7.0 0.00 0.00 0.00 22 1004.5
20260508181612 74 241 3.0 17.0 0.00 0.00 0.00 23 1004.4
20260508181047 74 244 3.0 17.0 0.00 0.00 0.00 21 1004.5
20260508180547 74 113 7.0 19.0 0.00 0.00 0.00 21 1004.5
20260508180108 74 244 9.0 19.0 0.00 0.00 0.00 20 1004.5
20260508175545 74 224 6.0 19.0 0.00 0.00 0.00 20 1004.6
20260508175045 74 248 6.0 15.0 0.00 0.00 0.00 21 1004.6
20260508174607 73 201 5.0 17.0 0.00 0.00 0.00 22 1004.8
20260508174045 73 266 9.0 17.0 0.00 0.00 0.00 21 1004.8
20260508173544 73 247 11.0 17.0 0.00 0.00 0.00 20 1004.9
20260508173053 73 302 4.0 16.0 0.00 0.00 0.00 21 1005.0
20260508172545 72 271 1.0 13.0 0.00 0.00 0.00 24 1005.2
20260508172045 72 287 3.0 19.0 0.00 0.00 0.00 23 1005.4
20260508171552 71 254 9.0 19.0 0.00 0.00 0.00 20 1005.4
20260508171045 72 245 4.0 13.0 0.00 0.00 0.00 20 1005.5
20260508170545 72 267 2.0 11.0 0.00 0.00 0.00 22 1005.6
20260508170057 71 294 2.0 11.0 0.00 0.00 0.00 21 1005.6
20260508165545 71 238 7.0 11.0 0.00 0.00 0.00 20 1005.8
20260508165045 72 233 3.0 13.0 0.00 0.00 0.00 21 1005.8
20260508164556 71 256 6.0 15.0 0.00 0.00 0.00 21 1005.9
20260508164046 71 251 7.0 15.0 0.00 0.00 0.00 20 1005.9
20260508163548 71 242 2.0 11.0 0.00 0.00 0.00 23 1006.0
20260508163051 70 277 6.0 14.0 0.00 0.00 0.00 22 1006.1
20260508162545 70 257 9.0 14.0 0.00 0.00 0.00 20 1006.2
20260508162045 70 219 4.0 10.0 0.00 0.00 0.00 22 1006.3
20260508161553 69 23 3.0 9.0 0.00 0.00 0.00 23 1006.3
20260508161045 69 0 2.0 7.0 0.00 0.00 0.00 25 1006.4
20260508160545 69 286 2.0 6.0 0.00 0.00 0.00 24 1006.6
20260508160052 69 309 2.0 8.0 0.00 0.00 0.00 23 1006.6
20260508155545 70 250 3.0 8.0 0.00 0.00 0.00 24 1006.6
20260508155045 69 294 2.0 10.0 0.00 0.00 0.00 26 1006.7
20260508154556 68 263 2.0 10.0 0.00 0.00 0.00 25 1006.7
20260508154047 68 242 1.0 11.0 0.00 0.00 0.00 26 1006.7
20260508153545 68 276 2.0 13.0 0.00 0.00 0.00 27 1006.7
20260508153059 68 230 5.0 13.0 0.00 0.00 0.00 25 1006.7
20260508152544 68 250 2.0 7.0 0.00 0.00 0.00 28 1006.8
20260508152045 67 237 2.0 7.0 0.00 0.00 0.00 27 1006.7
20260508151553 67 240 1.0 12.0 0.00 0.00 0.00 28 1006.8
20260508151043 66 262 2.0 12.0 0.00 0.00 0.00 26 1006.9
20260508150546 66 229 5.0 13.0 0.00 0.00 0.00 26 1006.9
20260508150056 66 267 5.0 13.0 0.00 0.00 0.00 26 1006.9
20260508145545 66 231 5.0 15.0 0.00 0.00 0.00 26 1007.0
20260508145049 65 285 2.0 15.0 0.00 0.00 0.00 28 1007.1
20260508144600 64 263 9.0 16.0 0.00 0.00 0.00 26 1007.0
20260508144045 64 254 8.0 19.0 0.00 0.00 0.00 27 1007.1
20260508143545 64 250 12.0 19.0 0.00 0.00 0.00 27 1007.0
20260508143052 64 225 13.0 20.0 0.00 0.00 0.00 27 1007.1
20260508142545 63 230 14.0 20.0 0.00 0.00 0.00 28 1007.1
20260508142046 63 236 12.0 18.0 0.00 0.00 0.00 28 1007.1
20260508141600 62 219 13.0 18.0 0.00 0.00 0.00 29 1007.2
20260508141044 62 219 10.0 15.0 0.00 0.00 0.00 31 1007.2
20260508140548 61 250 10.0 17.0 0.00 0.00 0.00 31 1007.1
20260508140106 60 244 9.0 17.0 0.00 0.00 0.00 32 1007.2
20260508135545 60 254 9.0 14.0 0.00 0.00 0.00 33 1007.1
20260508135044 59 223 8.0 15.0 0.00 0.00 0.00 35 1007.3
20260508134555 58 248 10.0 15.0 0.00 0.00 0.00 35 1007.3
20260508134044 58 242 10.0 15.0 0.00 0.00 0.00 35 1007.4
20260508133547 57 256 9.0 13.0 0.00 0.00 0.00 37 1007.3
20260508133054 56 255 8.0 13.0 0.00 0.00 0.00 39 1007.4
20260508132544 55 241 7.0 11.0 0.00 0.00 0.00 40 1007.5
20260508132045 55 209 7.0 11.0 0.00 0.00 0.00 41 1007.5
20260508131606 54 276 6.0 10.0 0.00 0.00 0.00 42 1007.5
20260508131046 53 246 5.0 9.0 0.00 0.00 0.00 43 1007.5
20260508130549 53 221 4.0 10.0 0.00 0.00 0.00 44 1007.5
20260508130056 53 261 5.0 10.0 0.00 0.00 0.00 43 1007.5
20260508125545 52 244 4.0 9.0 0.00 0.00 0.00 44 1007.5
20260508125044 52 247 3.0 9.0 0.00 0.00 0.00 45 1007.5
20260508124552 51 256 4.0 9.0 0.00 0.00 0.00 46 1007.5
20260508124046 51 256 4.0 9.0 0.00 0.00 0.00 46 1007.7
20260508123545 50 263 4.0 9.0 0.00 0.00 0.00 47 1007.6
20260508123055 50 271 4.0 10.0 0.00 0.00 0.00 48 1007.6
20260508122545 49 263 4.0 10.0 0.00 0.00 0.00 49 1007.5
20260508122044 48 271 2.0 7.0 0.00 0.00 0.00 51 1007.7
20260508121611 47 219 3.0 6.0 0.00 0.00 0.00 52 1007.6
20260508121048 46 240 3.0 6.0 0.00 0.00 0.00 54 1007.7
20260508120545 45 220 2.0 5.0 0.00 0.00 0.00 55 1007.6
20260508120100 44 250 2.0 4.0 0.00 0.00 0.00 56 1007.7
20260508115546 43 280 2.0 4.0 0.00 0.00 0.00 57 1007.7
20260508115044 42 247 2.0 4.0 0.00 0.00 0.00 57 1007.6
20260508114555 42 270 2.0 4.0 0.00 0.00 0.00 57 1007.6
20260508114048 41 265 2.0 4.0 0.00 0.00 0.00 58 1007.6
20260508113549 41 250 1.0 4.0 0.00 0.00 0.00 57 1007.6
20260508113057 41 242 1.0 4.0 0.00 0.00 0.00 57 1007.6
20260508112548 41 240 0.0 4.0 0.00 0.00 0.00 57 1007.6
20260508112048 41 231 1.0 4.0 0.00 0.00 0.00 56 1007.6
20260508111557 41 248 2.0 4.0 0.00 0.00 0.00 55 1007.6
20260508111045 41 196 2.0 4.0 0.00 0.00 0.00 55 1007.6
20260508110547 41 267 2.0 4.0 0.00 0.00 0.00 55 1007.6
20260508110059 41 225 2.0 4.0 0.00 0.00 0.00 55 1007.6
20260508105549 42 252 2.0 4.0 0.00 0.00 0.00 55 1007.6
20260508105048 42 282 1.0 5.0 0.00 0.00 0.00 54 1007.6
20260508104552 42 248 2.0 5.0 0.00 0.00 0.00 53 1007.7
20260508104048 42 244 2.0 5.0 0.00 0.00 0.00 53 1007.7
20260508103548 42 250 2.0 5.0 0.00 0.00 0.00 52 1007.7
20260508103114 43 273 2.0 5.0 0.00 0.00 0.00 52 1007.7
20260508102548 43 240 2.0 7.0 0.00 0.00 0.00 51 1007.7
20260508102045 43 273 4.0 7.0 0.00 0.00 0.00 51 1007.7
20260508101604 43 244 3.0 6.0 0.00 0.00 0.00 51 1007.8
20260508101048 43 240 3.0 6.0 0.00 0.00 0.00 50 1007.8
20260508100549 44 242 2.0 5.0 0.00 0.00 0.00 50 1007.7
20260508100054 44 216 2.0 5.0 0.00 0.00 0.00 50 1007.8
20260508095550 44 224 2.0 5.0 0.00 0.00 0.00 50 1007.8
20260508095045 44 148 2.0 6.0 0.00 0.00 0.00 49 1007.8
20260508094606 44 178 1.0 6.0 0.00 0.00 0.00 49 1007.8
20260508094047 45 227 2.0 6.0 0.00 0.00 0.00 48 1007.9
20260508093548 45 193 2.0 6.0 0.00 0.00 0.00 48 1007.9
20260508093050 45 213 3.0 6.0 0.00 0.00 0.00 48 1007.9
20260508092548 44 150 2.0 5.0 0.00 0.00 0.00 48 1007.9